Calvinia, South Africa
Current Conditions -  °F | °C
As of 3:00 PM on Sunday 21 Dec 2014 (Local Time) from FACT Reporting Station
Broken Clouds Broken Clouds  
Wind Chill: 72°   Ceiling: 4000
Heat Index: 72°   Visibility: 6mi
Dew Point: 54°   Wind: 9mph
Humidity: 53%   Direction: 210°SSW
Pressure: 29.97"   Gusts: NA
Location:  31.47°S, 19.77°E
Report Text: FACT 211300Z 21008KT 150V260 9999 BKN040 22/12 Q1015 NOSIG
Loading
Personal Weather Stations






























Interactive Weather Map New forecast layout! Learn more

10-Day Weather Forecast

Advertisements
Track Severe Weather on mobile